Regional Weather Roundup
Issued by NWS Charleston, SC

Current Version | Previous Version | Graphics & Text | Print | Product List | Glossary On
Versions: 1 2 3 4 5 6 7 8 9 10 11 12 13 14 15 16 17 18 19 20 21 22 23 24 25 26 27 28 29 30 31 32 33 34 35 36 37 38 39 40 41 42 43 44 45 46 47 48 49 50
000
ASUS42 KCHS 291228
RWRCHS

REGIONAL WEATHER ROUNDUP
NATIONAL WEATHER SERVICE CHARLESTON SC
800 AM EDT FRI JUL 29 2016

NOTE: "FAIR" INDICATES FEW OR NO CLOUDS BELOW 12,000 FEET WITH NO
SIGNIFICANT WEATHER AND/OR OBSTRUCTIONS TO VISIBILITY.

NOT ALL STATIONS ARE QUALITY CONTROLLED. USE DATA WITH CAUTION...
ESPECIALLY DEWPOINT OBSERVATIONS.

SCZ027-030-031-034>040-042>050-291300-
...SOUTHEAST SOUTH CAROLINA...

CITY           SKY/WX    TMP DP  RH WIND       PRES   REMARKS
N CHARLESTON   MOSUNNY   82  69  64 W8        29.98S
6HR MIN TEMP:  80; 6HR MAX TEMP:  85;

WATERFRONT PRK   N/A     82  72  71 W5        29.96R
MOUNT PLEASANT FAIR      82  72  69 W6        29.99R
JOHNS ISLAND   FAIR      84  73  70 W6        29.99S HX  91
PINOPOLIS        N/A     81  73  78 SW8       29.90R
MONCKS CORNER  FAIR      79  68  69 SW7       29.98S
SUMMERVILLE    FAIR      79  72  78 W6        30.00R
BEAUFORT MCAS  MOSUNNY   82  70  66 W10       30.00R
6HR MIN TEMP:  80; 6HR MAX TEMP:  83;

BEAUFORT ARPT  FAIR      82  72  69 W10       30.00S
HILTON HEAD IS SUNNY     82  72  69 W10       30.00S
WALTERBORO     SUNNY     81  70  69 W8        30.01R
ALLENDALE      FAIR      81  70  69 VRB5      30.00R

...SOUTHERN MIDLANDS AND PEE DEE...

CITY           SKY/WX    TMP DP  RH WIND       PRES   REMARKS
GEORGETOWN     FAIR      81  72  74 W8        29.98S
KINGSTREE      FAIR      81  70  69 SW3       29.96S
ORANGEBURG     SUNNY     79  70  74 SW8       29.98R
6HR MIN TEMP:  74; 6HR MAX TEMP:  79;

BARNWELL       NOT AVBL
AIKEN          FAIR      79  70  73 W9        30.03R
MANNING        FAIR      79  70  73 SW7       29.97R
COLUMBIA       MOSUNNY   81  70  69 SW8       29.95R
6HR MIN TEMP:  78; 6HR MAX TEMP:  83;

SUMTER         MOSUNNY   80  70  69 W13       29.93R
6HR MIN TEMP:  78; 6HR MAX TEMP:  80;

FLORENCE       SUNNY     81  70  69 SW10      29.94R
6HR MIN TEMP:  78; 6HR MAX TEMP:  82;

MYRTLE BEACH   SUNNY     82  70  65 W12       29.97R
N MYRTLE BEACH SUNNY     84  74  71 SW10      29.94R HX  91
6HR MIN TEMP:  80; 6HR MAX TEMP:  84;


$$

GAZ063-065-086>088-099>101-113>116-118-119-134>141-150-291300-
...SOUTHEAST GEORGIA...

CITY           SKY/WX    TMP DP  RH WIND       PRES   REMARKS
SAVANNAH ARPT  MOSUNNY   80  71  74 W8        30.02R
6HR MIN TEMP:  77; 6HR MAX TEMP:  82;

HUNTER AAF     SUNNY     81  75  82 W8        29.99S
6HR MIN TEMP:  78; 6HR MAX TEMP:  81;

FORT STEWART   SUNNY     80  72  77 W6        30.00R
6HR MIN TEMP:  77; 6HR MAX TEMP:  81;

STATESBORO     SUNNY     82  73  75 W7        30.03R
SYLVANIA       NOT AVBL
CLAXTON        FAIR      80  74  80 SW6       30.03R

...CSRA...CENTRAL AND FAR SOUTHEAST GEORGIA...

CITY           SKY/WX    TMP DP  RH WIND       PRES   REMARKS
THOMSON        NOT AVBL
AUGUSTA-BUSH   SUNNY     79  71  76 W7        29.99R
6HR MIN TEMP:  77; 6HR MAX TEMP:  79;

AUGUSTA-DANIEL MOSUNNY   80  71  74 W7        30.01R
SWAINSBORO     FAIR      79  72  78 W6        30.04S
VIDALIA        SUNNY     79  72  78 SW6       30.04S
EASTMAN        FAIR      80  66  62 W3        30.07S
HAZLEHURST     FAIR      81  77  87 CALM      30.04S
ALMA           SUNNY     78  74  87 W5        30.04R
6HR MIN TEMP:  74; 6HR MAX TEMP:  80;

WAYCROSS       SUNNY     84  78  84 NW7       30.05R HX  95
JESUP          FAIR      82  79  89 NW9       30.04R HX  93
BAXLEY         FAIR      81  79  94 W5        30.04S
BRUNSWICK      SUNNY     82  77  83 W6        30.04S HX  91
SAINT SIMONS   SUNNY     81  74  79 W5        30.03R
6HR MIN TEMP:  80; 6HR MAX TEMP:  83;


$$

SCZ027-028-034-036>038-045-046-048>050-GAZ119-141-291300-
...LAKE AND SUPPLEMENTAL COASTAL OBSERVATIONS...

STATION/POSITION TIME  TEMP    WIND        PRES    WAVE   SWELL
                       AIR SEA DIR/SP/G            HT/PER HT/PER/DIR
                 (UTC) (F)     (DEG/KT/KT) (MB)    (FT/S) (FT/S/D)
WINYAH BAY       1100   81     260/  6     1014.0
LAKE MURRAY      1200   80     270/ 13/ 17 1013.9R
ACE BASIN NERRS  1100   80     260/  1     1016.0R
FORT PULASKI     1200   82 87  270/ 13/ 15 1016.6R
SAPELO ISLAND    1200   81     280/  7     1017.0R

$$

ANZ835-935-AMZ111-154-330-350-352-354-370-450-454-472-291300-
...C-MAN AND BUOY OBSERVATIONS...

STATION/POSITION TIME  TEMP    WIND        PRES    WAVE   SWELL
                       AIR SEA DIR/SP/G            HT/PER HT/PER/DIR
                 (UTC) (F)     (DEG/KT/KT) (MB)    (FT/S) (FT/S/D)
BUOY 41004       1150   86 85  260/ 16/ 17 1014.6R   4/ 6   2/290/19
BUOY 41008       1150   84 86  280/ 16/ 19 1016.1R   2/ 3
FOLLY BEACH CMAN 1200   82     270/  6/  9 1015.5R
CAPERS NEARSHORE 1108   84 84  280/ 12/ 16 1014.8R
FRIPP NEARSHORE  1208   83 87  290/ 16/ 19 1015.4R


STATION/POSITION TIME  TEMP    WIND        PRES    WAVE   SWELL
                       AIR SEA DIR/SP/G            HT/PER HT/PER/DIR
                 (UTC) (F)     (DEG/KT/KT) (MB)    (FT/S) (FT/S/D)
5E ST. MARYS GA  1201      85                N/A     2/ 5
FRYING PAN BUOY  1200   85 85  250/ 16/ 19 1013.9R
BUOY 41025       1150   84 85  240/ 16/ 19 1012.2R   4/ 6   2/130/ 8
CAPE LOOKOUT NC  1200   84     250/ 12/ 16 1012.6R
BUOY 41002       1150   84 84  240/  8/ 10 1016.2R   3/ 6   3/250/ 6
BUOY 41010       1120   85 86  250/ 12/ 16 1017.4R
ST AUGUSTINE FL  1200   81 84  250/  6/  7 1018.4R


$$



USA.gov is the U.S. government's official web portal to all federal, state and local government web resources and services.